[[{"header":{"parameterUnit":"m.s-1","parameterCategory":1,"la1":30.2991,"la2":30.254,"lo1":-89.0895,"lo2":-89.0444,"dy":0.0017,"dx":0.0017,"nx":28,"ny":28,"refTime":"2023-07-21T03:00:00:Z","depth":0,"parameterNumber":2,"parameterNumberName":"U-component_of_WINDS"},"data":[0,0,0,0,0,0,0,0,0,0,0,0,0,0,0,0,0,0,0,0,0,0,0,0,0,0,0,0,0,0,0,0,0,0,0,0,0,0,0,0,0,0,0,0,0,0,0,0,0,0,0,0,0,0,0,0,0,0,2.7007,2.7007,0,2.7055,2.7056,2.7056,2.7073,2.7073,2.7073,2.7073,2.7121,2.7122,2.7124,0,0,0,0,0,0,0,0,0,0,0,0,0,2.6929,2.6931,2.7006,2.7007,2.7008,2.7055,2.7056,2.7056,2.7073,2.7073,2.7073,2.7073,2.712,2.7122,2.7124,0,0,0,0,0,0,0,0,0,0,0,0,0,2.6969,2.6931,2.7006,2.7022,2.7024,2.7055,2.7056,2.7056,2.7073,2.7073,2.7073,2.7072,2.712,2.7122,2.7124,2.7143,0,0,2.7131,2.7132,0,0,0,0,0,0,0,0,2.6966,2.6972,2.7019,2.7021,2.7023,2.7058,2.7046,2.7085,2.7073,2.7054,2.7073,2.7072,2.71,2.7104,2.7113,2.7145,2.7147,2.7131,2.7132,2.7133,2.7134,0,0,0,0,0,0,0,2.6964,2.697,2.7026,2.702,2.7022,2.7027,2.7032,2.7054,2.7078,2.7056,2.7057,2.7063,2.7101,2.7111,2.7115,2.7148,2.7131,2.7133,2.7134,2.7135,2.72,2.7201,0,0,0,0,0,0,2.6958,2.6967,2.7024,2.7027,2.6994,2.7028,2.7034,2.7047,2.7078,2.7082,2.7063,2.7064,2.7108,2.7112,2.7116,2.7142,2.7133,2.7135,2.7137,2.72,2.72,2.7201,0,0,0,0,0,0,2.6957,2.6963,2.7022,2.6998,2.7005,2.703,2.7044,2.7048,2.7058,2.7083,2.7088,2.7069,2.7108,2.7113,2.7137,2.7144,2.7136,2.7138,2.7199,2.72,2.7201,2.7192,0,0,0,0,0,0,2.6954,2.6963,2.6969,2.6998,2.7007,2.7041,2.7044,2.7049,2.7062,2.7063,2.709,2.7094,2.7108,2.7134,2.7139,2.7147,2.714,2.7199,2.72,2.7201,2.7192,2.7192,2.7193,0,0,0,0,0,2.6952,2.6964,2.697,2.6977,2.7016,2.7042,2.7047,2.7063,2.7063,2.707,2.7087,2.7093,2.7143,2.7136,2.7142,2.7151,2.7199,2.72,2.72,2.7192,2.7192,2.7193,0,0,0,0,0,0,2.6935,2.6968,2.6974,2.6997,2.7016,2.7044,2.7054,2.7063,2.7082,2.7082,2.7101,2.7107,2.7129,2.7142,2.7134,2.7172,2.7171,2.7173,2.7162,2.7163,2.7163,2.716,2.7142,0,0,0,0,0,2.6934,2.6952,2.698,2.6997,2.7007,2.7029,2.7041,2.7052,2.7073,2.7081,2.7099,2.7119,2.7139,2.7152,2.7172,2.7194,2.7201,2.7204,2.7204,2.7204,2.7206,2.7221,2.7223,2.7204,2.7204,2.7204,0,0,2.6932,2.6952,2.6962,2.6995,2.7011,2.703,2.7036,2.7055,2.7069,2.7084,2.7107,2.7122,2.7145,2.7169,2.7181,2.7181,2.7213,2.7206,2.7206,2.7207,2.7222,2.7224,2.7225,2.7205,2.7205,2.7205,0,0,2.6938,2.6955,2.6972,2.6989,2.7015,2.703,2.7034,2.7062,2.7072,2.7097,2.7108,2.7126,2.716,2.7177,2.719,2.7206,2.7214,2.7212,2.7214,2.7229,2.723,2.7232,2.7238,2.7241,2.7214,2.7214,2.7214,0,2.6932,2.6961,2.6979,2.6999,2.7013,2.7029,2.7047,2.7062,2.7093,2.7102,2.7103,2.7148,2.7164,2.7193,2.7198,2.7207,2.7214,2.7209,2.7229,2.723,2.7232,2.7239,2.7241,2.7214,2.7214,2.7214,2.7214,0,2.6953,2.6973,2.6984,2.7014,2.703,2.7048,2.707,2.7084,2.7095,2.711,2.7136,2.7158,2.7183,2.7191,2.72,2.7222,2.7222,2.7225,2.7224,2.7233,2.724,2.7242,2.7213,2.7213,2.7213,2.7214,0,0,2.6947,2.699,2.6994,2.7009,2.704,2.7056,2.7076,2.7102,2.7114,2.7136,2.7153,2.7184,2.7188,2.7203,2.7215,2.7228,2.7241,2.723,2.7231,2.7232,2.7268,2.7265,2.7267,2.7247,2.7247,2.7248,2.7266,0,2.6957,2.6994,2.7013,2.7042,2.7062,2.7078,2.7096,2.7117,2.7133,2.7153,2.717,2.7191,2.7195,2.7205,2.7218,2.7236,2.7248,2.7236,2.7264,2.7265,2.7257,2.7271,2.7267,2.7283,2.7269,2.7269,2.7269,0,2.6973,2.6996,2.7028,2.7059,2.7068,2.7083,2.711,2.7128,2.7154,2.7165,2.7183,2.7196,2.7219,2.7218,2.725,2.7241,2.7254,2.7265,2.7266,2.7269,2.7267,2.7274,2.7288,2.7291,2.7273,2.7273,2.7273,0,2.6967,2.7006,2.703,2.7042,2.7079,2.709,2.7106,2.7131,2.7146,2.717,2.718,2.7206,2.722,2.724,2.726,2.7257,2.7291,2.7291,2.7301,2.73,2.7306,2.7305,2.7323,2.7315,2.7315,2.7315,2.7315,0,2.6976,2.6995,2.7028,2.7043,2.7065,2.7087,2.7108,2.7125,2.7148,2.7167,2.7184,2.7201,2.7226,2.7247,2.7263,2.7289,2.7295,2.7304,2.7308,2.7303,2.7302,2.7311,2.731,2.7316,2.7315,2.7315,2.7315,0,2.6972,2.6995,2.7023,2.7056,2.7066,2.708,2.7109,2.7125,2.7143,2.7167,2.7174,2.7201,2.7227,2.725,2.7283,2.7294,2.7321,2.7325,2.7312,2.7314,2.7323,2.7322,2.7347,2.7352,2.734,2.734,2.7341,0,2.6976,2.6992,2.7028,2.7042,2.7058,2.708,2.7097,2.712,2.7137,2.7169,2.7181,2.7208,2.7231,2.7272,2.7295,2.7322,2.7328,2.7335,2.7331,2.7326,2.7328,2.7327,2.7329,2.7334,2.7334,2.7334,2.7334,0,2.6982,2.6993,2.7016,2.7044,2.7064,2.7087,2.711,2.7121,2.7149,2.7167,2.7194,2.7212,2.7248,2.7275,2.7305,2.7322,2.7333,2.7336,2.7339,2.7334,2.7326,2.7331,2.7313,2.7335,2.7335,2.7334,2.7334,2.7334,2.6982,2.6997,2.7026,2.7052,2.7072,2.7094,2.7111,2.7132,2.7156,2.7187,2.72,2.7228,2.7256,2.7297,2.7314,2.7337,2.7339,2.7344,2.7345,2.7346,2.7346,2.7323,2.7343,2.7343,2.7343,2.7343,2.7343,0,2.6989,2.7009,2.7033,2.7066,2.7087,2.7097,2.7124,2.7141,2.7166,2.7191,2.7214,2.7247,2.7274,2.7301,2.733,2.7343,2.7349,2.735,2.7349,2.7353,2.7342,2.7336,2.7345,2.7345,2.7345,2.7345,2.7345,2.7345,2.6995,2.7021,2.7036,2.7074,2.7094,2.7122,2.7137,2.7158,2.7179,2.7214,2.7238,2.7256,2.7282,2.7314,2.734,2.7347,2.7357,2.7357,2.7365,2.7354,2.7354,2.7353,2.7348,2.7359,2.7359,2.7375,2.7375,2.7375]},{"header":{"parameterUnit":"m.s-1","parameterCategory":1,"la1":30.2991,"la2":30.254,"lo1":-89.0895,"lo2":-89.0444,"dy":0.0017,"dx":0.0017,"nx":28,"ny":28,"refTime":"2023-07-21T03:00:00:Z","depth":0,"parameterNumber":3,"parameterNumberName":"V-component_of_WINDS"},"data":[0,0,0,0,0,0,0,0,0,0,0,0,0,0,0,0,0,0,0,0,0,0,0,0,0,0,0,0,0,0,0,0,0,0,0,0,0,0,0,0,0,0,0,0,0,0,0,0,0,0,0,0,0,0,0,0,0,0,-2.3323,-2.3323,0,-2.3357,-2.3357,-2.3358,-2.3355,-2.3355,-2.3354,-2.3354,-2.3387,-2.3388,-2.3389,0,0,0,0,0,0,0,0,0,0,0,0,0,-2.3256,-2.3257,-2.3323,-2.3323,-2.3324,-2.3357,-2.3357,-2.3358,-2.3355,-2.3355,-2.3354,-2.3354,-2.3386,-2.3388,-2.339,0,0,0,0,0,0,0,0,0,0,0,0,0,-2.3287,-2.3257,-2.3323,-2.3326,-2.3327,-2.3357,-2.3357,-2.3358,-2.3355,-2.3355,-2.3354,-2.3353,-2.3386,-2.3388,-2.339,-2.3417,0,0,-2.3396,-2.3397,0,0,0,0,0,0,0,0,-2.3285,-2.3289,-2.3326,-2.3326,-2.3327,-2.3351,-2.3346,-2.3378,-2.3356,-2.3345,-2.3354,-2.3353,-2.3375,-2.3378,-2.3386,-2.3419,-2.342,-2.3396,-2.3397,-2.3398,-2.3399,0,0,0,0,0,0,0,-2.3283,-2.3288,-2.3336,-2.3326,-2.3327,-2.3326,-2.333,-2.3352,-2.3364,-2.3346,-2.3345,-2.335,-2.3376,-2.3384,-2.3387,-2.3421,-2.3396,-2.3398,-2.3399,-2.34,-2.348,-2.3481,0,0,0,0,0,0,-2.328,-2.3286,-2.3335,-2.3337,-2.3304,-2.3328,-2.3332,-2.3344,-2.3364,-2.3366,-2.335,-2.3349,-2.3381,-2.3385,-2.3388,-2.3423,-2.3398,-2.34,-2.3401,-2.348,-2.3481,-2.3482,0,0,0,0,0,0,-2.3278,-2.3284,-2.3334,-2.3312,-2.3318,-2.333,-2.3344,-2.3345,-2.3354,-2.3367,-2.3369,-2.3357,-2.3381,-2.3385,-2.3411,-2.3424,-2.3401,-2.3403,-2.3478,-2.348,-2.3481,-2.3493,0,0,0,0,0,0,-2.3276,-2.3284,-2.3294,-2.3312,-2.3319,-2.3356,-2.3344,-2.3346,-2.3358,-2.3357,-2.3374,-2.3376,-2.338,-2.3408,-2.3413,-2.3427,-2.3404,-2.3477,-2.3479,-2.3481,-2.3491,-2.3495,-2.3497,0,0,0,0,0,-2.3274,-2.3295,-2.3295,-2.3301,-2.3332,-2.3357,-2.3361,-2.3366,-2.3359,-2.3369,-2.3378,-2.3375,-2.3422,-2.341,-2.3416,-2.3431,-2.3476,-2.3479,-2.3481,-2.349,-2.3494,-2.3497,0,0,0,0,0,0,-2.3277,-2.3297,-2.3297,-2.3325,-2.3339,-2.3356,-2.337,-2.337,-2.3386,-2.3384,-2.339,-2.3394,-2.342,-2.3428,-2.3414,-2.346,-2.3448,-2.3452,-2.3454,-2.3457,-2.346,-2.3458,-2.3406,0,0,0,0,0,-2.3281,-2.33,-2.3316,-2.3339,-2.3346,-2.3357,-2.3368,-2.3371,-2.3386,-2.3392,-2.3402,-2.3417,-2.3435,-2.3447,-2.3464,-2.3493,-2.3497,-2.3506,-2.3509,-2.3511,-2.3514,-2.3532,-2.3537,-2.3489,-2.3489,-2.3488,0,0,-2.3289,-2.3303,-2.3314,-2.334,-2.3351,-2.3371,-2.3362,-2.3382,-2.3396,-2.3394,-2.342,-2.3428,-2.3445,-2.3473,-2.3486,-2.348,-2.3529,-2.3514,-2.3516,-2.3517,-2.3535,-2.3539,-2.3543,-2.349,-2.349,-2.3489,0,0,-2.3314,-2.3326,-2.3347,-2.336,-2.3378,-2.3386,-2.3391,-2.3409,-2.3415,-2.3441,-2.344,-2.3457,-2.3488,-2.3501,-2.3511,-2.3544,-2.3542,-2.3549,-2.3564,-2.3582,-2.3586,-2.3589,-2.3602,-2.3607,-2.3552,-2.3552,-2.3552,0,-2.3322,-2.3351,-2.3358,-2.3379,-2.3391,-2.3392,-2.3414,-2.3425,-2.3448,-2.3457,-2.3451,-2.3491,-2.3502,-2.3534,-2.3542,-2.355,-2.3557,-2.3547,-2.3585,-2.3588,-2.3592,-2.3604,-2.3609,-2.3553,-2.3553,-2.3553,-2.3553,0,-2.3361,-2.3381,-2.3396,-2.342,-2.3434,-2.3455,-2.3465,-2.3478,-2.3481,-2.3489,-2.3517,-2.353,-2.3552,-2.3559,-2.3561,-2.3592,-2.3589,-2.3584,-2.3572,-2.3597,-2.3609,-2.3614,-2.3554,-2.3554,-2.3553,-2.3553,0,0,-2.3387,-2.3416,-2.3421,-2.3433,-2.3455,-2.3471,-2.3493,-2.3515,-2.3527,-2.3543,-2.3562,-2.359,-2.3586,-2.3598,-2.3602,-2.3617,-2.3644,-2.361,-2.3611,-2.3617,-2.3681,-2.3685,-2.3691,-2.3643,-2.3644,-2.3645,-2.368,0,-2.3415,-2.3455,-2.3463,-2.3497,-2.3517,-2.352,-2.3539,-2.3555,-2.3564,-2.3582,-2.3591,-2.3611,-2.3604,-2.3612,-2.3627,-2.3638,-2.3657,-2.3635,-2.3662,-2.3663,-2.3658,-2.3697,-2.3701,-2.3733,-2.3685,-2.3686,-2.3686,0,-2.3452,-2.3472,-2.3509,-2.353,-2.3539,-2.3556,-2.3578,-2.3595,-2.3614,-2.3619,-2.3634,-2.3637,-2.3661,-2.3649,-2.3682,-2.3667,-2.3679,-2.3686,-2.3687,-2.369,-2.3676,-2.3701,-2.3743,-2.3748,-2.3693,-2.3693,-2.3692,0,-2.3469,-2.3504,-2.3532,-2.3542,-2.3567,-2.358,-2.3591,-2.3608,-2.3622,-2.3641,-2.365,-2.3671,-2.3683,-2.37,-2.3708,-2.3698,-2.3742,-2.373,-2.3748,-2.3748,-2.3757,-2.3756,-2.3802,-2.3763,-2.3763,-2.3763,-2.3763,0,-2.35,-2.3523,-2.354,-2.3557,-2.3584,-2.3593,-2.3619,-2.3629,-2.3646,-2.3665,-2.3668,-2.3686,-2.3696,-2.3716,-2.3723,-2.3751,-2.3756,-2.3761,-2.3763,-2.3761,-2.3761,-2.3769,-2.3767,-2.3764,-2.3764,-2.3764,-2.3763,0,-2.3523,-2.3536,-2.3566,-2.3588,-2.3595,-2.3613,-2.3632,-2.3649,-2.3659,-2.3684,-2.369,-2.3705,-2.3729,-2.374,-2.3768,-2.3773,-2.3805,-2.3805,-2.38,-2.38,-2.3818,-2.3816,-2.3871,-2.3879,-2.3834,-2.3835,-2.3835,0,-2.3542,-2.356,-2.3586,-2.36,-2.3611,-2.3633,-2.3648,-2.3658,-2.3673,-2.3697,-2.3711,-2.3736,-2.3755,-2.3793,-2.3807,-2.383,-2.383,-2.3848,-2.3834,-2.3832,-2.3832,-2.3831,-2.3834,-2.385,-2.3851,-2.3851,-2.3852,0,-2.3575,-2.3581,-2.3602,-2.3626,-2.3644,-2.3663,-2.3682,-2.3693,-2.3706,-2.3723,-2.3748,-2.3764,-2.3795,-2.3819,-2.3843,-2.3855,-2.3856,-2.3856,-2.3862,-2.386,-2.3857,-2.3861,-2.3807,-2.3855,-2.3854,-2.3854,-2.3854,-2.3854,-2.3598,-2.3615,-2.3636,-2.366,-2.3676,-2.3694,-2.3712,-2.3725,-2.3746,-2.3773,-2.3778,-2.3805,-2.3825,-2.3857,-2.387,-2.3892,-2.3887,-2.3895,-2.3897,-2.3899,-2.3901,-2.3854,-2.3896,-2.3896,-2.3896,-2.3896,-2.3896,0,-2.3632,-2.3646,-2.3668,-2.3696,-2.3715,-2.3716,-2.3737,-2.3753,-2.3778,-2.3797,-2.3817,-2.3847,-2.3871,-2.3888,-2.3913,-2.3927,-2.3928,-2.3933,-2.3932,-2.3935,-2.3902,-2.3896,-2.3932,-2.3932,-2.3932,-2.3932,-2.3932,-2.3932,-2.3652,-2.3682,-2.369,-2.3729,-2.3743,-2.377,-2.3783,-2.38,-2.3815,-2.3849,-2.387,-2.3881,-2.39,-2.3926,-2.3949,-2.3953,-2.3963,-2.3968,-2.3972,-2.3941,-2.3937,-2.3934,-2.3928,-2.397,-2.397,-2.4004,-2.4004,-2.4004]}]]